STARLINK-3083, 49158

Orbit data source: Space-Track

STARLINK-3083, 49158 is a payload satellite owned by SpaceX/Seattle (US) in LEO that was launched on Tue, 14 Sep 2021 UTC via an FALCON 9 launch vehicle from the Air Force Western Test Range (AFWTR). Payload-class satellites include a variety of spacecraft equipped with specific instruments for various scientific and technological missions. These include communications satellites like Starlink; space stations such as the ISS; scientific satellites like the Hubble; Earth observation satellites from companies like Planet Labs, Umbra, and HawkEye 360; GPS; miniature CubeSats for education and research; and military/defense satellites.

Loading next visibility...
Identifier
49158, 2021-082AE
Orbit
LEO
Country
Flag of USUS
Related business
Manufacturer
SpaceX/Seattle
Mission
Partially operational Commercial Communications
Bus & Motor
STARLINK, Unknown motor
Mass
297 kg wet, ~275 kg dry
Launch date (UTC)
2021-09-14 (5 years ago)
Launch vehicle
FALCON 9
Launch site
Air Force Western Test Range (AFWTR)
Object type
Payload
Rocket body
Debris
Shape & HBR
Box + 1 Pan, 10.1 m
Radar Cross Section
13.562 m², Large (>1 m²)

Expand to show TLE details & history
Last TLE update: 2 days ago

TLE from 2 days ago
0 STARLINK-3083
1 49158U 21082AE  26171.46944066  .00080710  00000-0  46820-3 0  9995
2 49158  69.9605 243.7078 0003514 294.7624  65.3209 15.78158008266194
Epoch: 2026-06-20T11:15Z
TLE epoch observation values (Epoch: 2026-06-20T11:15:59.673Z)
Latitude
-0.00006°
Longitude
166.02552°
Altitude
337.181 km
Speed
7.707 km/s
True Right ascension
16h 14m 49s
True Declination
0° 00' 00"
Sunlit
Object was in full shadow at epoch
Visualization orbit readout
Latitude
Unknown
Longitude
Unknown
Altitude
Unknown
Speed
Unknown
Apparent Right ascension
Unknown
Apparent Declination
Unknown
Sunlit
N/A
Visualization observer readout
Local Sidereal Time
21:39:43
Azimuth
Unknown
Elevation
Unknown
Doppler factor
Unknown
Orbital elements
Apogee altitude
335.898 km
Perigee altitude
331.181 km
Semi-major axis
6,711.677 km
Eccentricity
0.00035
Inclination
69.9605°
RAAN
243.7078°
Arg. of periapsis
294.7624°
True anomaly
65.3575°
Mean anomaly
65.3209°
Eccentric anomaly
65.3392°
Mean motion
3.94727 °/min
Orbital period
91.2 mins
BSTAR
0.0004682
Loading maneuver chart data...
Computing Atmospheric mass density...

Documentation

Showing up to 5 results
|